Location: Unspecified
(0.0000°N, 0.0000°E)
Time: 16:18:52
(UTC+00:00)

APRIZESAT 1 (LATINSAT C) - Visible Passes

Search period start: 28 May 2023 00:00
Search period end: 07 June 2023 00:00
Orbit: 693 x 757 km, 98.5° (Epoch: 27 May)

Date Brightness Start Highest point End Pass type
(mag) Time Alt. Az. Time Alt. Az. Time Alt. Az.
28 May ? 03:01:40 10° NNE 03:02:40 16° NE 03:02:40 16° NE visible
29 May ? 03:51:24 10° N 03:53:04 20° NNW 03:53:04 20° NNW visible
30 May ? 03:03:01 10° NNE 03:04:06 16° NNE 03:04:06 16° NNE visible
31 May ? 03:52:49 10° N 03:54:29 20° NNW 03:54:29 20° NNW visible
01 Jun ? 03:04:23 10° NNE 03:05:31 17° NNE 03:05:31 17° NNE visible
02 Jun ? 03:54:14 10° N 03:55:54 20° NNW 03:55:54 20° NNW visible
03 Jun ? 03:05:45 10° NNE 03:06:56 17° NNE 03:06:56 17° NNE visible
04 Jun ? 03:55:39 10° NNW 03:57:19 20° NNW 03:57:19 20° NNW visible
05 Jun ? 03:07:06 10° NNE 03:08:19 17° NNE 03:08:19 17° NNE visible
06 Jun ? 03:57:03 10° NNW 03:58:42 19° NNW 03:58:42 19° NNW visible
